{"data":{"norad_id":37847,"intl_designator":"2011-060B","name":"GSAT0102 (GALILEO-FM2)","alt_names":[],"object_type":"PAYLOAD","status":"ACTIVE","operator":null,"country":"ESA","launch_date":"2011-10-21","launch_site_code":"FRGUI","launch_vehicle":null,"mission":null,"orbit_class":"UNKNOWN","rcs_meters":20.1111,"size_class":null,"mass_kg":null,"dimensions":null,"purposes":["earth_obs","nav"],"wikipedia_slug":null,"has_3d_model":false,"image_url":null,"decayed_at":null,"tle_current":{"epoch":"2026-09-19T17:48:24.361632Z","epoch_age_seconds":79918,"freshness":"FRESH","line1":"1 37847U 11060B   26262.74194863 -.00000089  00000+0  00000+0 0  9993","line2":"2 37847  56.9563 339.1974 0002362 310.0842  13.8998  1.70476155 92737","mean_motion":1.70476155,"eccentricity":0.0002362,"inclination_deg":56.9563,"raan_deg":339.1974,"arg_perigee_deg":310.0842,"mean_anomaly_deg":13.8998,"bstar":0,"rev_number":9273,"period_min":844.69291321123,"perigee_km":23214.942067334,"apogee_km":23228.925140688,"semimajor_km":29600.070604011,"source":"CELESTRAK","updated_at":"2026-09-20T09:00:46.491622Z"}}}